EW4997 Weather Reports


Display with metric or nautical units.
time (UTC)temp
F
wind
direction
speed
MPH
gust
MPH
rain 1hr
in
rain 24hr
in
rain mn
in
humidity
%
barometer
mb
20260906074539 69 234 0.0 0.0 0.00 0.52 0.00 94 991.6
20260906073030 69 234 0.0 0.0 0.00 0.52 0.00 94 991.4
20260906071528 69 234 0.0 0.0 0.00 0.52 0.00 94 991.5
20260906070028 69 234 0.0 0.0 0.00 0.52 0.00 94 991.5
20260906064529 69 234 0.0 0.0 0.00 0.52 0.00 94 991.5
20260906063026 69 234 0.0 0.0 0.00 0.52 0.00 94 991.7
20260906061524 70 234 0.0 0.0 0.00 0.52 0.00 93 991.8
20260906060023 70 234 0.0 0.0 0.00 0.52 0.00 94 991.8
20260906054522 70 234 0.0 0.0 0.00 0.52 0.00 93 992.0
20260906053021 70 234 0.0 0.0 0.00 0.52 0.00 93 991.9
20260906051523 70 230 0.0 0.0 0.00 0.52 0.00 93 992.0
20260906050019 71 230 0.0 0.0 0.00 0.52 0.00 93 992.2
20260906044518 71 230 0.0 0.0 0.00 0.52 0.00 93 992.2
20260906043017 71 230 0.0 0.0 0.00 0.52 0.00 93 991.9
20260906041520 71 230 0.0 0.0 0.00 0.52 0.00 93 991.8
20260906040013 71 230 0.0 0.0 0.00 0.52 0.00 93 992.0
20260906034514 71 230 0.0 0.0 0.00 0.52 0.52 93 992.0
20260906033012 71 230 0.0 0.0 0.00 0.52 0.52 93 992.0
20260906031510 71 230 0.0 0.0 0.00 0.52 0.52 93 992.2
20260906030011 71 230 0.0 0.0 0.00 0.52 0.52 92 992.5
20260906024511 72 230 0.0 0.0 0.00 0.52 0.52 92 992.1
20260906023009 72 230 0.0 0.0 0.00 0.52 0.52 92 992.3
20260906021509 72 230 0.0 0.0 0.00 0.52 0.52 91 992.2
20260906020009 73 230 0.0 0.0 0.00 0.52 0.52 91 992.3
20260906014525 73 230 0.0 0.0 0.00 0.52 0.52 90 992.0
20260906013009 73 230 0.0 0.0 0.00 0.52 0.52 90 991.8
20260906011508 73 230 0.0 0.0 0.00 0.52 0.52 90 991.7
20260906010025 74 250 0.0 0.0 0.00 0.52 0.52 88 991.7
20260906004507 75 250 0.0 0.0 0.00 0.52 0.52 87 991.4
20260906003007 75 250 0.0 0.0 0.00 0.52 0.52 86 991.2
20260906001506 76 250 0.0 2.0 0.00 0.52 0.52 85 991.3
20260906000005 78 250 0.0 2.0 0.00 0.52 0.52 82 991.1
20260905234505 80 250 0.0 1.0 0.00 0.53 0.52 78 991.1
20260905233004 81 250 0.0 1.0 0.00 0.53 0.52 76 991.0
20260905231504 82 250 0.0 1.0 0.00 0.53 0.52 75 991.0
20260905230003 83 267 0.0 2.0 0.00 0.53 0.52 74 991.1
20260905224503 83 293 0.0 0.0 0.00 0.53 0.52 74 991.3
20260905223002 82 290 2.0 4.0 0.00 0.53 0.52 72 991.4
20260905221605 82 175 0.0 3.0 0.00 0.53 0.52 74 991.5
20260905220059 82 171 0.0 3.0 0.00 0.53 0.52 75 991.4
20260905214559 82 321 1.0 5.0 0.00 0.53 0.52 76 991.4
20260905213100 82 300 1.0 3.0 0.00 0.53 0.52 77 991.4
20260905211559 82 184 2.0 9.0 0.00 0.53 0.52 76 991.3
20260905210059 81 298 0.0 6.0 0.00 0.53 0.52 77 991.3
20260905204602 81 150 0.0 4.0 0.00 0.53 0.52 76 991.2
20260905203101 81 318 1.0 3.0 0.00 0.53 0.52 76 991.4
20260905201605 80 146 1.0 4.0 0.00 0.53 0.52 76 991.5
20260905200058 80 284 3.0 8.0 0.00 0.53 0.52 75 991.4
20260905194552 81 309 1.0 4.0 0.00 0.53 0.52 77 991.7
20260905193050 81 200 1.0 5.0 0.00 0.53 0.52 79 992.1
20260905191550 80 186 1.0 3.0 0.00 0.53 0.52 78 992.2
20260905190047 78 194 1.0 4.0 0.00 0.53 0.52 83 992.5
20260905184548 77 194 0.0 5.0 0.00 0.53 0.52 88 992.8
20260905183106 76 276 0.0 5.0 0.00 0.53 0.52 91 993.1
20260905181545 74 289 1.0 4.0 0.00 0.53 0.52 93 993.3
20260905180050 73 204 1.0 3.0 0.00 0.53 0.52 94 993.5
20260905174544 73 205 2.0 3.0 0.00 0.53 0.52 94 994.0
20260905173044 72 227 0.0 2.0 0.00 0.53 0.52 94 994.5
20260905171548 71 178 0.0 3.0 0.00 0.53 0.52 93 994.6
20260905170047 71 177 0.0 3.0 0.22 0.53 0.52 93 994.5
20260905164542 71 201 0.0 3.0 0.52 0.53 0.52 92 994.0
20260905163043 72 207 0.0 4.0 0.52 0.53 0.52 91 994.4
20260905161544 74 168 2.0 5.0 0.52 0.53 0.52 87 994.7
20260905160041 78 327 5.0 18.0 0.28 0.30 0.28 82 995.6
20260905154539 84 323 0.0 0.0 0.00 0.01 0.00 73 994.0
20260905153039 85 320 0.0 0.0 0.00 0.01 0.00 72 993.9
20260905151538 84 172 0.0 0.0 0.00 0.01 0.00 73 993.8
20260905150032 83 250 0.0 0.0 0.00 0.01 0.00 76 993.5
20260905144534 82 304 0.0 0.0 0.00 0.01 0.00 79 993.4
20260905143026 81 297 0.0 0.0 0.00 0.01 0.00 82 993.4
20260905141522 79 277 0.0 0.0 0.00 0.01 0.00 86 993.5
20260905140016 77 298 0.0 0.0 0.00 0.01 0.00 88 993.7
20260905134511 75 311 0.0 0.0 0.00 0.01 0.00 93 993.8
20260905133008 73 263 0.0 0.0 0.00 0.01 0.00 95 993.7
20260905131506 73 62 0.0 0.0 0.00 0.01 0.00 95 993.9
20260905130002 71 67 0.0 0.0 0.00 0.01 0.00 95 994.2
20260905124501 71 69 0.0 0.0 0.00 0.01 0.00 95 994.1
20260905123000 70 69 0.0 0.0 0.00 0.01 0.00 95 994.1
20260905121601 69 69 0.0 0.0 0.00 0.01 0.00 95 994.1
20260905120100 69 69 0.0 0.0 0.00 0.01 0.00 95 993.9
20260905114559 68 69 0.0 0.0 0.00 0.01 0.00 95 993.8
20260905113108 68 69 0.0 0.0 0.00 0.01 0.00 94 993.7
20260905111605 68 69 0.0 0.0 0.00 0.01 0.00 94 993.6
20260905110058 68 69 0.0 0.0 0.00 0.01 0.00 94 993.4
20260905104610 68 69 0.0 0.0 0.00 0.01 0.00 94 993.1
20260905103059 68 69 0.0 0.0 0.00 0.01 0.00 94 993.2
20260905101556 68 69 0.0 0.0 0.00 0.01 0.00 94 993.0
20260905100054 68 69 0.0 0.0 0.00 0.01 0.00 94 993.1
20260905094554 68 69 0.0 0.0 0.00 0.01 0.00 94 993.0
20260905093053 69 69 0.0 0.0 0.00 0.01 0.00 94 992.9
20260905091552 69 69 0.0 0.0 0.00 0.01 0.00 94 992.8
20260905084549 69 69 0.0 0.0 0.00 0.01 0.00 94 992.8
20260905083049 69 69 0.0 0.0 0.00 0.01 0.00 94 992.9
20260905081548 69 69 0.0 0.0 0.00 0.01 0.00 94 992.8
20260905080046 70 69 0.0 0.0 0.00 0.01 0.00 94 992.9